DW8231 Weather Reports


Display with metric or nautical units.
time (UTC)temp
F
wind
direction
speed
MPH
gust
MPH
rain 1hr
in
rain 24hr
in
rain mn
in
humidity
%
barometer
mb
20260904013513 79 136 0.0 0.0 0.00 0.15 0.05 79 1006.9
20260904013013 79 155 0.0 0.0 0.00 0.15 0.05 79 1006.9
20260904012513 79 155 0.0 0.0 0.00 0.15 0.05 78 1006.8
20260904012013 79 142 0.0 0.0 0.00 0.15 0.05 78 1006.8
20260904011513 80 122 0.0 0.0 0.00 0.15 0.05 77 1006.6
20260904011012 80 152 0.0 0.0 0.00 0.15 0.05 77 1006.6
20260904010612 80 150 0.0 0.0 0.00 0.15 0.05 76 1006.6
20260904010013 80 154 0.0 0.0 0.00 0.15 0.05 76 1006.5
20260904005512 80 155 0.0 0.0 0.00 0.15 0.05 75 1006.6
20260904005012 81 159 0.0 0.0 0.00 0.15 0.05 75 1006.6
20260904004512 81 152 0.0 0.0 0.00 0.15 0.05 74 1006.7
20260904004013 81 162 0.0 0.0 0.00 0.15 0.05 73 1006.7
20260904003518 81 151 0.0 0.0 0.00 0.15 0.05 73 1006.7
20260904003012 82 170 0.0 0.0 0.00 0.15 0.05 72 1006.7
20260904002515 82 126 0.0 0.0 0.00 0.15 0.05 71 1006.7
20260904002012 82 166 0.0 0.0 0.00 0.15 0.05 71 1006.7
20260904001512 82 159 0.0 0.0 0.00 0.15 0.05 70 1006.8
20260904001011 82 173 0.0 0.0 0.00 0.15 0.05 70 1006.9
20260904000612 83 144 0.0 0.0 0.00 0.15 0.05 69 1006.9
20260904000012 83 139 0.0 0.0 0.00 0.15 0.05 69 1006.9
20260903235512 83 150 0.0 0.0 0.00 0.15 0.05 69 1006.8
20260903235011 83 173 0.0 0.0 0.00 0.15 0.05 69 1006.8
20260903234522 83 185 0.0 0.0 0.00 0.15 0.05 69 1006.7
20260903234011 83 177 0.0 0.0 0.00 0.15 0.05 69 1006.6
20260903233511 83 174 0.0 0.0 0.00 0.15 0.05 69 1006.5
20260903233011 83 188 0.0 0.0 0.00 0.15 0.05 69 1006.5
20260903232510 84 138 0.0 0.0 0.00 0.15 0.05 68 1006.1
20260903232014 84 172 0.0 0.0 0.00 0.15 0.05 68 1006.3
20260903231511 84 132 0.0 0.0 0.00 0.15 0.05 67 1006.3
20260903231009 84 130 0.0 0.0 0.00 0.15 0.05 67 1006.1
20260903230610 84 167 0.0 0.0 0.00 0.15 0.05 67 1006.1
20260903230010 84 166 0.0 0.0 0.00 0.15 0.05 67 1006.2
20260903225510 84 168 0.0 0.0 0.00 0.15 0.05 68 1006.2
20260903225008 84 74 0.0 0.0 0.00 0.15 0.05 67 1006.1
20260903224521 84 121 0.0 0.0 0.00 0.15 0.05 68 1006.2
20260903224012 84 137 0.0 0.0 0.00 0.15 0.05 68 1006.2
20260903223508 83 110 0.0 0.0 0.00 0.15 0.05 68 1006.2
20260903223007 83 101 0.0 0.0 0.00 0.15 0.05 67 1006.3
20260903222510 83 360 0.0 0.0 0.00 0.15 0.05 67 1006.2
20260903222006 84 126 0.0 0.0 0.00 0.15 0.05 66 1006.4
20260903221506 84 180 0.0 0.0 0.00 0.15 0.05 66 1006.5
20260903221006 84 117 0.0 0.0 0.00 0.15 0.05 67 1006.5
20260903220605 84 114 0.0 0.0 0.00 0.15 0.05 65 1006.5
20260903220008 84 121 0.0 0.0 0.00 0.15 0.05 65 1006.5
20260903215507 84 122 0.0 0.0 0.00 0.15 0.05 65 1006.7
20260903215005 84 99 0.0 0.0 0.00 0.15 0.05 65 1006.6
20260903214505 84 111 0.0 0.0 0.00 0.15 0.05 64 1006.7
20260903214005 84 131 0.0 0.0 0.00 0.15 0.05 64 1006.7
20260903213506 84 112 0.0 0.0 0.00 0.15 0.05 64 1006.9
20260903213003 83 135 0.0 0.0 0.00 0.15 0.05 64 1007.1
20260903212503 83 150 0.0 0.0 0.00 0.15 0.05 65 1007.2
20260903212004 83 103 0.0 0.0 0.00 0.15 0.05 65 1007.3
20260903211503 83 130 0.0 0.0 0.00 0.15 0.05 65 1007.2
20260903211003 83 180 0.0 0.0 0.00 0.15 0.05 66 1007.3
20260903210606 84 111 0.0 0.0 0.00 0.15 0.05 66 1007.2
20260903210003 84 122 0.0 0.0 0.00 0.15 0.05 65 1007.2
20260903205504 84 123 0.0 0.0 0.00 0.15 0.05 64 1007.2
20260903205001 83 103 0.0 0.0 0.00 0.15 0.05 67 1007.1
20260903204501 83 151 0.0 0.0 0.00 0.15 0.05 68 1007.1
20260903204003 83 109 0.0 0.0 0.00 0.15 0.05 69 1007.0
20260903203503 83 144 0.0 0.0 0.00 0.15 0.05 70 1007.0
20260903203003 83 113 0.0 0.0 0.01 0.15 0.05 69 1007.0
20260903202600 83 126 0.0 0.0 0.01 0.15 0.05 71 1007.0
20260903202100 83 116 0.0 0.0 0.01 0.15 0.05 72 1006.8
20260903201558 82 121 0.0 0.0 0.01 0.15 0.05 72 1006.8
20260903201056 82 108 0.0 0.0 0.01 0.15 0.05 73 1006.9
20260903200556 82 60 0.0 0.0 0.01 0.15 0.05 74 1007.3
20260903200056 82 126 0.0 0.0 0.01 0.15 0.05 74 1007.3
20260903195554 82 126 0.0 0.0 0.01 0.15 0.05 73 1007.3
20260903195057 82 159 0.0 0.0 0.01 0.15 0.05 73 1007.7
20260903194553 82 126 0.0 0.0 0.01 0.15 0.05 75 1007.7
20260903194053 81 119 0.0 0.0 0.01 0.15 0.05 77 1007.7
20260903193552 80 118 0.0 0.0 0.01 0.15 0.05 80 1007.7
20260903193049 79 105 0.0 0.0 0.01 0.15 0.05 84 1007.6
20260903192547 77 134 0.0 0.0 0.01 0.14 0.04 86 1007.7
20260903192045 76 117 0.0 0.0 0.01 0.14 0.04 88 1007.7
20260903191551 75 103 0.0 0.0 0.01 0.14 0.04 89 1008.0
20260903191042 75 146 0.0 0.0 0.01 0.14 0.04 90 1007.8
20260903190541 74 119 0.0 0.0 0.01 0.14 0.04 90 1007.7
20260903190041 74 121 0.0 0.0 0.01 0.14 0.04 90 1007.7
20260903185542 74 124 0.0 0.0 0.01 0.14 0.04 90 1007.7
20260903185038 74 119 0.0 0.0 0.01 0.14 0.04 90 1007.8
20260903184543 73 112 0.0 0.0 0.01 0.14 0.04 89 1008.0
20260903184036 73 108 0.0 0.0 0.01 0.14 0.04 89 1008.0
20260903183534 73 117 0.0 0.0 0.02 0.14 0.04 89 1008.0
20260903183036 74 99 0.0 0.0 0.02 0.14 0.04 89 1008.0
20260903182533 74 135 0.0 0.0 0.01 0.13 0.03 89 1008.1
20260903182033 74 121 0.0 0.0 0.03 0.13 0.03 90 1008.1
20260903181528 73 114 0.0 0.0 0.03 0.13 0.03 91 1008.2
20260903181027 73 135 0.0 0.0 0.03 0.13 0.03 91 1008.2
20260903180526 72 59 0.0 0.0 0.03 0.13 0.03 91 1008.2
20260903180033 72 92 0.0 0.0 0.03 0.13 0.03 92 1008.2
20260903175525 72 80 0.0 0.0 0.03 0.13 0.03 91 1008.0
20260903175026 72 107 0.0 0.0 0.03 0.13 0.03 91 1008.0
20260903174525 72 126 0.0 0.0 0.03 0.13 0.03 91 1008.0
20260903174024 72 121 0.0 0.0 0.03 0.13 0.03 91 1008.1
20260903173521 72 82 0.0 0.0 0.03 0.13 0.03 91 1008.4
20260903173022 72 91 0.0 0.0 0.02 0.12 0.02 90 1008.5
20260903172524 72 71 0.0 0.0 0.02 0.12 0.02 90 1008.6
20260903172020 72 107 0.0 0.0 0.01 0.11 0.01 90 1008.8
20260903171518 72 123 0.0 0.0 0.00 0.10 0.00 90 1008.7
20260903171016 73 113 0.0 0.0 0.00 0.10 0.00 89 1009.2
20260903170516 73 142 0.0 0.0 0.00 0.10 0.00 89 1009.3
20260903170015 73 142 0.0 0.0 0.00 0.10 0.00 89 1009.3
20260903165515 73 123 0.0 0.0 0.00 0.10 0.00 89 1009.0
20260903165013 73 128 0.0 0.0 0.00 0.10 0.00 89 1008.8
20260903164512 73 134 0.0 0.0 0.01 0.10 0.00 89 1008.8
20260903164011 73 107 0.0 0.0 0.02 0.10 0.00 90 1008.9
20260903163508 72 118 0.0 0.0 0.02 0.10 0.00 90 1008.7
20260903163007 72 114 0.0 0.0 0.02 0.10 0.00 90 1008.7
20260903162510 72 123 0.0 0.0 0.02 0.10 0.10 90 1008.7
20260903162008 72 116 0.0 0.0 0.02 0.10 0.10 90 1008.8
20260903161507 72 115 0.0 0.0 0.02 0.10 0.10 90 1008.9
20260903161007 73 126 0.0 0.0 0.02 0.10 0.10 89 1008.8
20260903160507 73 96 0.0 0.0 0.02 0.10 0.10 89 1008.5
20260903160012 73 92 0.0 0.0 0.02 0.10 0.10 89 1008.5
20260903155510 73 101 0.0 0.0 0.02 0.10 0.10 88 1008.4
20260903155007 73 191 0.0 0.0 0.02 0.10 0.10 87 1009.0
20260903154507 74 192 0.0 0.0 0.01 0.09 0.09 87 1009.1
20260903154009 73 192 0.0 0.0 0.01 0.09 0.09 87 1009.6
20260903153507 74 128 0.0 0.0 0.00 0.08 0.08 86 1008.9
20260903153007 74 138 0.0 0.0 0.00 0.08 0.08 86 1009.0
20260903152508 74 130 0.0 0.0 0.00 0.08 0.08 86 1008.7
20260903152007 74 135 0.0 0.0 0.00 0.08 0.08 85 1008.7
20260903151506 74 131 0.0 0.0 0.00 0.08 0.08 85 1008.7
20260903151007 74 138 0.0 0.0 0.00 0.08 0.08 86 1008.9
20260903150506 74 121 0.0 0.0 0.00 0.08 0.08 86 1008.7
20260903150006 74 121 0.0 0.0 0.00 0.08 0.08 86 1008.7
20260903145506 74 140 0.0 0.0 0.00 0.08 0.08 86 1008.7
20260903145005 74 142 0.0 0.0 0.00 0.08 0.08 86 1008.5
20260903144505 74 175 0.0 0.0 0.00 0.08 0.08 86 1008.6
20260903144005 73 175 0.0 0.0 0.00 0.08 0.08 86 1008.7
20260903143505 73 175 0.0 0.0 0.00 0.08 0.08 86 1008.6
20260903143007 73 119 0.0 0.0 0.00 0.08 0.08 86 1008.5
20260903142504 73 142 0.0 0.0 0.00 0.08 0.08 86 1008.5
20260903142005 73 118 0.0 0.0 0.00 0.08 0.08 87 1008.5
20260903141509 73 117 0.0 0.0 0.00 0.08 0.08 88 1008.5
20260903141004 73 112 0.0 0.0 0.00 0.08 0.08 88 1008.5
20260903140508 72 126 0.0 0.0 0.00 0.08 0.08 89 1008.6
20260903140013 72 126 0.0 0.0 0.00 0.08 0.08 89 1008.6
20260903135506 72 119 0.0 0.0 0.00 0.08 0.08 90 1008.6
20260903135008 71 121 0.0 0.0 0.00 0.08 0.08 90 1008.6
20260903134505 71 183 0.0 0.0 0.00 0.08 0.08 90 1008.6
20260903134009 71 149 0.0 0.0 0.00 0.08 0.08 90 1008.6
20260903133505 71 128 0.0 0.0 0.00 0.08 0.08 90 1008.7
20260903133006 71 140 0.0 0.0 0.00 0.08 0.08 90 1008.7
20260903132505 70 113 0.0 0.0 0.00 0.08 0.08 91 1008.6
20260903132005 70 119 0.0 0.0 0.00 0.08 0.08 91 1008.5
20260903131505 70 129 0.0 0.0 0.04 0.08 0.08 91 1008.4
20260903131005 70 108 0.0 0.0 0.04 0.08 0.08 91 1008.4
20260903130504 70 94 0.0 0.0 0.08 0.08 0.08 91 1008.8
20260903130005 70 116 0.0 0.0 0.08 0.08 0.08 91 1008.8
20260903125504 70 130 0.0 0.0 0.08 0.08 0.08 91 1009.1
20260903125006 70 128 0.0 0.0 0.08 0.08 0.08 91 1009.0
20260903124505 70 122 0.0 0.0 0.08 0.08 0.08 91 1009.0
20260903124003 70 144 0.0 0.0 0.08 0.08 0.08 91 1009.0
20260903123505 70 128 0.0 0.0 0.08 0.08 0.08 91 1008.8
20260903123003 70 130 0.0 0.0 0.08 0.08 0.08 90 1008.8
20260903122503 71 120 0.0 0.0 0.08 0.08 0.08 90 1009.0
20260903122002 71 113 0.0 0.0 0.08 0.08 0.08 89 1009.2
20260903121501 72 240 0.0 0.0 0.05 0.05 0.05 89 1009.8
20260903121001 72 241 0.0 0.0 0.04 0.04 0.04 89 1010.2
20260903120503 72 210 0.0 0.0 0.00 0.00 0.00 90 1009.7
20260903120002 72 209 0.0 0.0 0.00 0.00 0.00 90 1009.7
20260903115502 72 177 0.0 0.0 0.00 0.00 0.00 90 1009.2
20260903115002 72 222 0.0 0.0 0.00 0.00 0.00 91 1009.3
20260903114601 72 176 0.0 0.0 0.00 0.00 0.00 91 1009.2
20260903114101 72 155 0.0 0.0 0.00 0.00 0.00 91 1009.2
20260903113604 72 151 0.0 0.0 0.00 0.00 0.00 92 1009.0
20260903113100 72 151 0.0 0.0 0.00 0.00 0.00 92 1008.9
20260903112603 72 151 0.0 0.0 0.00 0.00 0.00 92 1008.7
20260903112059 72 147 0.0 0.0 0.00 0.00 0.00 92 1008.4
20260903111607 72 144 0.0 0.0 0.00 0.00 0.00 92 1008.5
20260903111103 72 144 0.0 0.0 0.00 0.00 0.00 92 1008.6
20260903110601 72 144 0.0 0.0 0.00 0.00 0.00 92 1008.6
20260903105605 72 145 0.0 0.0 0.00 0.00 0.00 92 1008.9
20260903105100 71 145 0.0 0.0 0.00 0.00 0.00 92 1009.0
20260903104600 71 144 0.0 0.0 0.00 0.00 0.00 92 1009.2
20260903104059 71 144 0.0 0.0 0.00 0.00 0.00 92 1009.2
20260903103559 71 145 0.0 0.0 0.00 0.00 0.00 92 1009.3
20260903103100 71 133 0.0 0.0 0.00 0.00 0.00 92 1009.2
20260903102559 71 120 0.0 0.0 0.00 0.00 0.00 92 1009.0
20260903102102 71 119 0.0 0.0 0.00 0.00 0.00 92 1008.9
20260903101603 71 117 0.0 0.0 0.00 0.00 0.00 92 1008.9
20260903101059 71 117 0.0 0.0 0.00 0.00 0.00 92 1008.9
20260903100559 71 95 0.0 0.0 0.00 0.00 0.00 92 1008.9
20260903095600 71 90 0.0 0.0 0.00 0.00 0.00 92 1008.5
20260903095058 71 90 0.0 0.0 0.00 0.00 0.00 92 1008.5
20260903094609 71 90 0.0 0.0 0.00 0.00 0.00 92 1008.4
20260903094058 71 90 0.0 0.0 0.00 0.00 0.00 91 1008.5
20260903093557 71 90 0.0 0.0 0.00 0.00 0.00 91 1008.6
20260903093108 71 90 0.0 0.0 0.00 0.00 0.00 91 1008.5
20260903092556 71 90 0.0 0.0 0.00 0.00 0.00 91 1008.6
20260903092056 71 90 0.0 0.0 0.00 0.00 0.00 91 1008.6
20260903091556 72 90 0.0 0.0 0.00 0.00 0.00 91 1008.6
20260903091059 72 90 0.0 0.0 0.00 0.00 0.00 91 1008.5
20260903090555 72 90 0.0 0.0 0.00 0.00 0.00 91 1008.5
20260903085556 72 90 0.0 0.0 0.00 0.00 0.00 91 1008.3
20260903085055 72 90 0.0 0.0 0.00 0.00 0.00 91 1008.4
20260903084556 72 90 0.0 0.0 0.00 0.00 0.00 91 1008.4
20260903084058 72 90 0.0 0.0 0.00 0.00 0.00 90 1008.3
20260903083555 72 90 0.0 0.0 0.00 0.00 0.00 90 1008.2
20260903083055 72 90 0.0 0.0 0.00 0.00 0.00 90 1008.3
20260903082553 72 90 0.0 0.0 0.00 0.03 0.00 90 1008.4
20260903082053 72 90 0.0 0.0 0.00 0.03 0.00 90 1008.4
20260903081553 72 90 0.0 0.0 0.00 0.03 0.00 90 1008.4
20260903081051 72 90 0.0 0.0 0.00 0.03 0.00 90 1008.4
20260903080556 72 90 0.0 0.0 0.00 0.03 0.00 90 1008.4
20260903075556 72 90 0.0 0.0 0.00 0.03 0.00 90 1008.5
20260903075052 72 90 0.0 0.0 0.00 0.03 0.00 89 1008.7
20260903074551 72 90 0.0 0.0 0.00 0.03 0.00 89 1008.6
20260903074052 72 90 0.0 0.0 0.00 0.03 0.00 89 1008.6
20260903073552 72 90 0.0 0.0 0.00 0.03 0.00 89 1008.7
20260903073052 73 90 0.0 0.0 0.00 0.03 0.00 89 1008.8
20260903072552 73 90 0.0 0.0 0.00 0.15 0.00 88 1008.8
20260903072050 73 90 0.0 0.0 0.00 0.15 0.00 88 1008.9
20260903071551 73 90 0.0 0.0 0.00 0.15 0.00 88 1008.9
20260903071049 73 90 0.0 0.0 0.00 0.15 0.00 88 1008.9
20260903070549 73 90 0.0 0.0 0.00 0.15 0.00 88 1009.0
20260903065549 73 90 0.0 0.0 0.00 0.15 0.00 87 1009.0
20260903065049 73 90 0.0 0.0 0.00 0.15 0.00 87 1008.9
20260903064548 73 90 0.0 0.0 0.00 0.15 0.00 87 1008.9
20260903064047 73 90 0.0 0.0 0.00 0.15 0.00 87 1008.9
20260903063547 73 90 0.0 0.0 0.00 0.15 0.00 87 1009.0
20260903063047 74 90 0.0 0.0 0.00 0.15 0.00 87 1009.0
20260903062546 74 90 0.0 0.0 0.00 0.16 0.00 86 1009.1
20260903062046 74 90 0.0 0.0 0.00 0.16 0.00 86 1009.1
20260903061553 74 90 0.0 0.0 0.00 0.16 0.00 86 1009.0
20260903061045 74 90 0.0 0.0 0.00 0.16 0.00 86 1009.0
20260903060545 74 90 0.0 0.0 0.00 0.16 0.00 86 1009.0
20260903055546 74 90 0.0 0.0 0.00 0.16 0.00 85 1009.0
20260903055044 74 90 0.0 0.0 0.00 0.16 0.00 85 1009.1
20260903054543 74 90 0.0 0.0 0.00 0.16 0.00 85 1009.0
20260903054043 74 90 0.0 0.0 0.00 0.16 0.00 85 1009.0
20260903053543 74 94 0.0 0.0 0.00 0.16 0.00 84 1009.0
20260903053042 74 95 0.0 0.0 0.00 0.16 0.00 84 1008.9
20260903052541 74 91 0.0 0.0 0.00 0.16 0.00 84 1008.9
20260903052041 75 91 0.0 0.0 0.00 0.16 0.00 84 1009.0
20260903051541 75 91 0.0 0.0 0.00 0.16 0.00 84 1009.1
20260903051042 75 91 0.0 0.0 0.00 0.16 0.00 83 1009.1
20260903050542 75 92 0.0 0.0 0.00 0.16 0.00 83 1009.1
20260903045540 75 92 0.0 0.0 0.00 0.16 0.00 83 1009.2
20260903045043 75 92 0.0 0.0 0.00 0.16 0.00 83 1009.3
20260903044541 75 93 0.0 0.0 0.00 0.16 0.00 83 1009.3
20260903044044 75 93 0.0 0.0 0.00 0.16 0.00 83 1009.2
20260903043539 75 94 0.0 0.0 0.00 0.16 0.00 83 1009.1
20260903043043 75 94 0.0 0.0 0.00 0.16 0.00 83 1009.2
20260903042539 75 94 0.0 0.0 0.00 0.16 0.00 83 1009.2
20260903042040 75 94 0.0 0.0 0.00 0.16 0.00 82 1009.1
20260903041541 75 93 0.0 0.0 0.00 0.16 0.00 82 1009.2
20260903041036 75 94 0.0 0.0 0.00 0.16 0.00 82 1009.3
20260903040536 75 94 0.0 0.0 0.00 0.16 0.00 82 1009.2
20260903035536 76 94 0.0 0.0 0.00 0.16 0.00 81 1009.4
20260903035038 76 94 0.0 0.0 0.00 0.16 0.00 81 1009.4
20260903034542 76 94 0.0 0.0 0.00 0.16 0.00 81 1009.5
20260903034035 76 94 0.0 0.0 0.00 0.16 0.00 81 1009.4
20260903033539 76 94 0.0 0.0 0.00 0.16 0.00 81 1009.3
20260903033036 76 94 0.0 0.0 0.00 0.16 0.00 80 1009.4
20260903032537 77 94 0.0 0.0 0.00 0.16 0.00 80 1009.3
20260903032035 77 94 0.0 0.0 0.00 0.16 0.00 80 1009.4
20260903031538 77 94 0.0 0.0 0.00 0.16 0.00 80 1009.3
20260903031035 77 94 0.0 0.0 0.00 0.16 0.00 79 1009.3
20260903030536 77 94 0.0 0.0 0.00 0.16 0.00 79 1009.2
20260903025540 78 94 0.0 0.0 0.00 0.16 0.00 79 1009.3
20260903025038 78 94 0.0 0.0 0.00 0.16 0.00 78 1009.2
20260903024535 78 94 0.0 0.0 0.00 0.16 0.00 78 1009.2
20260903024035 78 94 0.0 0.0 0.00 0.16 0.00 78 1009.3
20260903023538 78 94 0.0 0.0 0.00 0.16 0.00 77 1009.3
20260903023035 78 94 0.0 0.0 0.00 0.16 0.00 77 1009.2
20260903022538 79 94 0.0 0.0 0.00 0.16 0.00 77 1009.2
20260903022037 79 94 0.0 0.0 0.00 0.16 0.00 77 1009.2
20260903021534 79 94 0.0 0.0 0.00 0.16 0.00 77 1009.2
20260903021034 79 94 0.0 0.0 0.00 0.16 0.00 76 1009.2
20260903020537 79 94 0.0 0.0 0.00 0.16 0.00 76 1009.1
20260903015536 79 94 0.0 0.0 0.00 0.16 0.00 75 1009.1
20260903015036 79 94 0.0 0.0 0.00 0.16 0.00 75 1009.1
20260903014535 80 94 0.0 0.0 0.00 0.16 0.00 74 1008.9
20260903014033 80 94 0.0 3.0 0.00 0.16 0.00 74 1008.8